Location: Moscow
(55.7500°N, 37.5830°E)
Time: 18:57:50
(UTC+03:00)

Tiros 1 - Pass Details

Date: 09 December 2021
Orbit: 629 x 664 km, 48.4° (Epoch: 19 January)

Event Time Altitude Azimuth Distance (km) Brightness Sun altitude
Rises 18:55:46 0° 242° (WSW) 2,919 11.7 -23.4°
Reaches altitude 10° 18:58:16 10° 232° (SW) 2,015 10.5 -23.7°
Enters shadow 19:02:19 31° 171° (S) 1,111 8.3 -24.3°
